Content
SEND FEEDBACK

Daily
Averages
Monthly
Summary
Canada

VANCOUVER, BRITISH COLUMBIA


Home > North America > Canada > British Columbia
Elevation: 7 feet     Latitude: 49 11N     Longitude: 123 10W

WEATHER
 
SELECT A DAY
Number of Records: 254,043;   Date Range: 5/15/97 - 11/24/14
 
SHARE

PRINT THIS DATA

[ ← Previous Day ]
WEATHER ALMANAC - NOVEMBER 13, 2013
[ Next Day → ]
[ °C ]   °F
Weather ElementAverageHighLow
Temperature50.1 °F55.4 °F (12:15 pm)48.2 °F (6:55 am)
Dewpoint50.1 °F55.4 °F (12:15 pm)48.2 °F (6:55 am)
Humidity100 %100 % (1:15 am)100 % (1:15 am)
Barometer30.34 in30.39 in (12:15 pm)30.29 in (11:15 pm)
Wind Speed8.4 mph12.7 mph (5:15 am)
Wind Gust16.1 mph (8:35 pm)
Weather ElementAverage
Visibility9.9 mi
Wind DirectionSSW (193.8 °)

Weather ElementTotal
Precipitation---
Heating Degree Days13.2 (Base 65)
Growing Degree Days1.8 (Base 50)
Averaged from 40 records on November 13, 2013
WEATHER CONDITIONS BREAKOUT
WIND DIRECTION BREAKOUT
WEATHER BY HOUR - NOVEMBER 13, 2013
[ °C ]   °F
Local TimeTemperatureDewpointHumidityBarometerVisibilityWind DirectionWind SpeedGust SpeedPrecipitationEventsConditions
1:15 AM50.0 °F50.0 °F100 %30.31 in10.0 miSSW (200°)10.4 mphScattered Clouds
1:35 AM50.0 °F50.0 °F100 %30.32 in10.0 miSSW (200°)9.2 mphPartly Cloudy
2:15 AM50.0 °F50.0 °F100 %30.32 in10.0 miSouth (190°)5.8 mphScattered Clouds
2:35 AM50.0 °F50.0 °F100 %30.32 in10.0 miSouth (180°)4.6 mphScattered Clouds
2:55 AM50.0 °F50.0 °F100 %30.33 in10.0 miSouth (180°)8.1 mphScattered Clouds
3:15 AM50.0 °F50.0 °F100 %30.32 in10.0 miSouth (190°)11.5 mphMostly Cloudy
3:55 AM50.0 °F50.0 °F100 %30.33 in10.0 miSouth (180°)9.2 mphScattered Clouds
4:15 AM50.0 °F50.0 °F100 %30.33 in10.0 miSouth (180°)8.1 mphClear
4:35 AM50.0 °F50.0 °F100 %30.34 in10.0 miSouth (190°)8.1 mphClear
5:15 AM50.0 °F50.0 °F100 %30.35 in10.0 miSSW (200°)12.7 mphClear
6:35 AM50.0 °F50.0 °F100 %30.36 in10.0 miSSW (200°)9.2 mphClear
6:55 AM48.2 °F48.2 °F100 %30.36 in10.0 miSouth (170°)3.5 mphClear
7:15 AM48.2 °F48.2 °F100 %30.37 in10.0 miSSW (200°)9.2 mphClear
7:35 AM48.2 °F48.2 °F100 %30.37 in8.0 miSouth (190°)6.9 mphClear
8:15 AM48.2 °F48.2 °F100 %30.37 in9.0 miSouth (190°)10.4 mphPartly Cloudy
12:15 PM55.4 °F55.4 °F100 %30.39 in10.0 miSW (230°)6.9 mphMostly Cloudy
12:55 PM55.4 °F55.4 °F100 %30.39 in10.0 miWSW (240°)9.2 mphMostly Cloudy
4:35 PM53.6 °F53.6 °F100 %30.37 in10.0 miSouth (190°)9.2 mphMostly Cloudy
4:55 PM53.6 °F53.6 °F100 %30.37 in10.0 miSouth (180°)9.2 mphMostly Cloudy
5:15 PM51.8 °F51.8 °F100 %30.36 in10.0 miSouth (180°)8.1 mphMostly Cloudy
5:35 PM51.8 °F51.8 °F100 %30.36 in10.0 miSSW (200°)6.9 mphOvercast
5:55 PM51.8 °F51.8 °F100 %30.36 in10.0 miSSW (200°)8.1 mphOvercast
6:15 PM51.8 °F51.8 °F100 %30.35 in10.0 miSouth (190°)6.9 mphOvercast
6:35 PM51.8 °F51.8 °F100 %30.35 in10.0 miSSW (200°)10.4 mphOvercast
6:55 PM51.8 °F51.8 °F100 %30.35 in10.0 miSouth (190°)8.1 mphOvercast
7:15 PM50.0 °F50.0 °F100 %30.34 in10.0 miSouth (190°)8.1 mphOvercast
7:35 PM50.0 °F50.0 °F100 %30.34 in10.0 miSouth (190°)8.1 mphMostly Cloudy
7:55 PM50.0 °F50.0 °F100 %30.33 in10.0 miSouth (180°)6.9 mphOvercast
8:15 PM50.0 °F50.0 °F100 %30.33 in10.0 miSouth (190°)10.4 mphOvercast
8:35 PM50.0 °F50.0 °F100 %30.33 in10.0 miSSW (200°)12.7 mph16.1 mphMostly Cloudy
8:55 PM50.0 °F50.0 °F100 %30.33 in10.0 miSSW (200°)10.4 mphPartly Cloudy
9:15 PM48.2 °F48.2 °F100 %30.32 in10.0 miSouth (190°)9.2 mphClear
9:35 PM48.2 °F48.2 °F100 %30.32 in10.0 miSSW (200°)9.2 mphClear
9:55 PM48.2 °F48.2 °F100 %30.31 in10.0 miSSW (210°)6.9 mphClear
10:15 PM48.2 °F48.2 °F100 %30.31 in10.0 miSSW (200°)8.1 mphPartly Cloudy
10:35 PM48.2 °F48.2 °F100 %30.30 in10.0 miSSW (200°)11.5 mphScattered Clouds
10:55 PM48.2 °F48.2 °F100 %30.30 in10.0 miSouth (190°)6.9 mphClear
11:15 PM48.2 °F48.2 °F100 %30.29 in10.0 miSouth (190°)8.1 mphClear
11:35 PM48.2 °F48.2 °F100 %30.30 in10.0 miSouth (190°)4.6 mphClear
11:55 PM48.2 °F48.2 °F100 %30.29 in10.0 miSouth (190°)4.6 mphClear
Hourly data recorded from CZBB, located miles away from Vancouver, British Columbia







STORIES FROM OUR PARTNERS